FW8889 Weather Reports


Display with metric or nautical units.
time (UTC)temp
F
wind
direction
speed
MPH
gust
MPH
rain 1hr
in
rain 24hr
in
rain mn
in
humidity
%
barometer
mb
20260504044559 37 0 0.0 0.0 0.00 0.00 0.00 75 1010.7
20260504043055 37 0 0.0 1.0 0.00 0.00 0.00 75 1010.7
20260504041556 37 0 0.0 1.0 0.00 0.00 0.00 75 1010.6
20260504034558 38 0 0.0 1.0 0.00 0.00 0.00 73 1010.4
20260504033124 38 0 0.0 1.0 0.00 0.00 0.00 73 1010.3
20260504031554 38 0 0.0 0.0 0.00 0.00 0.00 72 1010.3
20260504030051 39 0 0.0 2.0 0.00 0.00 0.00 71 1010.3
20260504024546 40 0 0.0 1.0 0.00 0.00 0.00 70 1010.3
20260504023059 40 0 0.0 0.0 0.00 0.00 0.00 68 1010.3
20260504021552 41 0 0.0 0.0 0.00 0.00 0.00 66 1010.3
20260504020057 42 0 0.0 0.0 0.00 0.00 0.00 63 1010.2
20260504014555 43 0 0.0 0.0 0.00 0.00 0.00 58 1010.1
20260504013058 43 0 0.0 0.0 0.00 0.00 0.00 57 1010.0
20260504011543 45 0 0.0 0.0 0.00 0.00 0.00 55 1009.9
20260504010059 46 0 0.0 0.0 0.00 0.00 0.00 53 1009.8
20260504004600 47 0 0.0 0.0 0.00 0.00 0.00 51 1009.6
20260504003048 48 0 0.0 0.0 0.00 0.00 0.00 50 1009.3
20260504001551 49 0 0.0 3.0 0.00 0.00 0.00 47 1009.1
20260504000050 49 63 0.0 4.0 0.00 0.00 0.00 46 1008.9
20260503234549 50 159 0.0 4.0 0.00 0.00 0.00 45 1008.8
20260503233050 51 221 1.0 10.0 0.00 0.00 0.00 43 1008.6
20260503231556 51 232 1.0 9.0 0.00 0.00 0.00 42 1008.3
20260503230057 51 345 0.0 6.0 0.00 0.00 0.00 43 1008.2
20260503224552 52 168 2.0 10.0 0.00 0.00 0.00 40 1007.9
20260503223058 52 320 2.0 8.0 0.00 0.00 0.00 41 1007.6
20260503221553 52 11 1.0 9.0 0.00 0.00 0.00 42 1007.7
20260503220052 52 21 3.0 9.0 0.00 0.00 0.00 42 1007.4
20260503214551 52 334 2.0 9.0 0.00 0.00 0.00 40 1007.2
20260503213100 52 273 2.0 14.0 0.00 0.00 0.00 39 1007.0
20260503211548 52 297 1.0 9.0 0.00 0.00 0.00 40 1006.8
20260503210058 53 311 4.0 12.0 0.00 0.00 0.00 41 1006.7
20260503204553 53 234 2.0 13.0 0.00 0.00 0.00 41 1006.6
20260503203058 53 277 2.0 10.0 0.00 0.00 0.00 41 1006.2
20260503201546 53 104 1.0 9.0 0.00 0.00 0.00 46 1006.2
20260503200056 54 301 3.0 10.0 0.00 0.00 0.00 44 1006.0
20260503194549 54 340 1.0 8.0 0.00 0.00 0.00 46 1006.2
20260503193054 54 317 2.0 9.0 0.00 0.00 0.00 44 1006.3
20260503191635 54 321 1.0 7.0 0.00 0.00 0.00 44 1006.3
20260503190049 54 205 2.0 10.0 0.00 0.00 0.00 48 1006.6
20260503184558 53 223 2.0 12.0 0.00 0.00 0.00 47 1006.5
20260503183100 51 215 2.0 11.0 0.00 0.00 0.00 49 1006.7
20260503181551 51 306 2.0 15.0 0.00 0.00 0.00 51 1006.7
20260503180046 51 360 3.0 10.0 0.00 0.00 0.00 53 1006.5
20260503174548 51 310 1.0 7.0 0.00 0.00 0.00 57 1006.6
20260503173112 51 321 1.0 6.0 0.00 0.00 0.00 58 1006.4
20260503171550 50 0 0.0 9.0 0.00 0.00 0.00 63 1006.5
20260503120106 43 0 1.0 3.0 0.00 0.04 0.00 85 1007.5
20260503081549 44 0 0.0 1.0 0.00 0.06 0.00 86 1008.7
20260503071548 44 0 0.0 4.0 0.00 0.06 0.00 86 1009.0
20260503054552 46 0 0.0 3.0 0.00 0.06 0.00 85 1009.9